Location: ????????
(54.4481°N, 22.5761°E)
Time: 04:58:24
(UTC+00:00)

Daily predictions for brighter satellites

Satellite Brightness Start Highest point End
(mag) Time Altitude Azimuth Time Altitude Azimuth Time Altitude Azimuth
ATLAS 2AS CENTAUR R/B 4.4 00:18:49 30° NE 00:18:49 30° NE 00:22:54 10° ENE
SL-16 R/B 4.4 01:40:02 16° N 01:40:02 16° N 01:41:55 10° NNE
CZ-4C R/B 3.1 01:54:51 48° ENE 01:54:51 48° ENE 01:59:28 10° NE
Cosmos 2123 Rocket 4.3 01:59:35 10° N 02:05:45 64° ENE 02:11:54 10° SSE
Cosmos 1833 Rocket 4.2 02:04:18 26° SE 02:05:58 31° ESE 02:10:51 10° NE
ATLAS 2AS CENTAUR R/B 3.5 02:06:16 44° NNW 02:08:06 52° NNE 02:15:23 10° E
SL-16 R/B 3.8 02:08:51 26° N 02:10:33 31° NE 02:15:33 10° E
Cosmos 2237 Rocket 4.4 02:10:29 15° N 02:10:39 15° N 02:13:53 10° NNE
Lacrosse 5 rocket 4.0 02:15:26 15° ENE 02:15:26 15° ENE 02:16:11 10° ENE
Cosmos 2360 Rocket 4.2 02:11:10 18° N 02:13:11 22° NNE 02:17:32 10° ENE
IDEFIX/ARIANE 42P 3.4 02:09:19 10° NNE 02:13:15 47° NE 02:13:15 47° NE
CZ-2C R/B 4.1 02:13:04 10° NNE 02:17:27 30° E 02:21:41 10° SSE
Lacrosse 5 4.0 02:17:17 18° SE 02:18:27 19° SE 02:22:00 10° E
Cosmos 1980 Rocket 2.5 02:20:43 66° E 02:20:43 66° E 02:25:58 10° SE
NOSS 2-2 (E) 4.5 02:21:10 72° NE 02:21:10 72° NE 02:28:29 10° ESE
Cosmos 1821 Rocket 3.9 02:22:13 77° NE 02:22:13 77° NE 02:28:01 10° NNE
Cosmos 2322 Rocket 3.7 02:19:47 24° N 02:21:57 31° NE 02:26:58 10° E
ADEOS II 4.1 02:26:09 10° N 02:27:29 17° N 02:27:29 17° N
Meteor 2-12 Rocket 4.4 02:35:46 69° NNW 02:35:46 69° NNW 02:41:18 10° N
SL-4 R/B 3.0 02:41:39 51° SE 02:41:39 51° SE 02:45:33 10° E
ATLAS 5 CENTAUR R/B 4.2 02:41:10 50° W 02:43:15 59° SW 03:11:18 10° SSE
USA 234 3.2 02:37:12 10° E 02:43:43 72° N 02:44:57 59° WNW
Meteor 1-27 4.2 02:39:04 10° NNW 02:44:57 89° WSW 02:50:49 10° SSE
Cosmos 2333 Rocket 4.3 02:42:58 15° NNW 02:45:42 20° NNE 02:49:50 10° ENE
COSMOS 2455 3.4 02:43:57 37° NNW 02:46:04 55° NE 02:51:59 10° ESE
Cosmos 1535 Rocket 4.4 02:43:49 24° S 02:47:43 84° E 02:53:54 10° NNE
Cosmos 2360 4.2 02:49:08 67° SSW 02:49:08 67° SSW 02:54:15 10° SSE
COSMO-SKYMED 1 3.8 02:44:54 10° SE 02:48:57 40° ENE 02:52:26 13° N
Cosmos 2285 Rocket 4.1 02:50:35 56° NW 02:50:35 56° NW 02:56:45 10° NNE
PAYLOAD A 4.4 02:45:20 10° NNE 02:50:35 66° ESE 02:55:49 11° S
Meteor 1-31 Rocket 4.1 02:47:21 10° NNE 02:50:58 38° E 02:52:47 23° SSE
MSX 3.8 02:47:30 10° NNE 02:53:18 82° ESE 02:56:46 26° SSW
Cosmos 2112 Rocket 3.9 02:54:12 69° NNW 02:54:53 88° ENE 03:00:13 10° SSE
SJ 16-02 3.9 02:52:50 10° SSE 02:56:06 21° E 02:59:22 10° NE
Cosmos 1869 4.0 02:58:11 51° ESE 02:58:11 51° ESE 03:01:31 10° SSE
Cosmos 2278 4.1 02:59:05 47° SSW 02:59:05 47° SSW 03:03:27 10° SSE
Cosmos 1777 Rocket 3.8 02:58:24 81° W 02:58:33 82° WNW 03:03:48 10° NNE
Cosmos 1697 Rocket 3.9 03:03:20 27° SSW 03:03:20 27° SSW 03:06:03 10° S
NOSS 2-1 (E) 4.0 03:03:06 47° NNE 03:03:06 47° NNE 03:06:22 10° NE
Cosmos 1680 Rocket 3.3 03:02:38 73° WSW 03:02:44 74° WSW 03:08:01 10° SSE
ADEOS 3.4 02:57:56 10° NNE 03:03:10 71° WNW 03:03:20 70° W
COBE Rocket 4.1 02:59:09 10° SSE 03:04:18 78° ENE 03:09:23 10° N
NOSS 2-2 (D) 4.3 03:04:33 54° WNW 03:06:00 83° SW 03:13:26 10° SE
Cosmos 2219 Rocket 4.2 03:03:17 13° NNW 03:06:44 21° NNE 03:10:58 10° ENE
H-2A R/B 2.5 03:05:34 10° NNE 03:10:06 90° NNW 03:10:59 59° SSW
COSMOS 2406 3.2 03:12:35 55° W 03:13:26 61° NW 03:19:10 10° NNE
NOSS 3-4 (A) 3.9 03:15:38 30° NW 03:19:17 69° NNE 03:26:42 10° ESE
NOSS 3-4 (C) 3.9 03:15:44 30° NW 03:19:23 68° NNE 03:26:47 10° ESE
Meteor 1-11 4.1 03:15:40 20° SSW 03:19:44 73° WNW 03:25:34 10° NNE
Cosmos 158 Rocket 3.7 03:19:59 37° NNW 03:21:59 85° WSW 03:26:54 10° SSE
STARLINK-60 4.3 03:22:25 35° SSE 03:22:26 35° SSE 03:25:33 10° E
SL-16 R/B 4.3 03:21:55 12° NNW 03:24:10 15° N 03:27:25 10° NE
Cosmos 1934 Rocket 4.0 03:22:28 17° SSW 03:27:25 58° WNW 03:33:44 10° N
STARLINK-46 3.8 03:28:10 45° ESE 03:28:10 45° ESE 03:30:29 10° E
SL-27 R/B 4.2 03:25:09 10° S 03:28:07 31° ESE 03:31:08 10° NE
Cosmos 2082 Rocket 2.3 03:22:45 12° SSW 03:28:09 77° ESE 03:33:53 10° NE
CZ-4B R/B 4.0 03:26:47 10° NNE 03:31:15 88° WNW 03:35:46 10° SSW
FALCON 9 DEB 4.3 03:30:53 33° S 03:31:25 35° SSE 03:34:36 10° E
Cosmos 1447 Rocket 4.4 03:26:08 10° NNW 03:32:26 67° W 03:38:43 10° S
USA 116 3.8 03:29:44 10° SSE 03:32:55 58° ENE 03:35:10 20° N
Cosmos 2084 Rocket 3.6 03:32:23 35° SW 03:34:10 74° SE 03:38:38 10° NE
SJ-6F 4.3 03:31:31 10° N 03:35:33 60° WNW 03:36:10 53° WSW
SKYMED 2 3.4 03:32:38 10° SSE 03:37:00 81° WSW 03:41:05 12° NNW
COSMOS 2428 4.4 03:33:28 11° NNW 03:38:09 27° NNE 03:42:57 10° E
Cosmos 1328 Rocket 4.3 03:36:54 10° N 03:41:12 53° ENE 03:45:25 10° SSE
CZ-4C R/B 2.9 03:40:02 33° WNW 03:42:09 45° NNW 03:48:41 10° NE
Cosmos 1151 Rocket 3.6 03:44:42 10° N 03:49:04 59° ENE 03:53:23 10° SSE
Cosmos 1833 Rocket 2.7 03:46:04 23° SW 03:49:35 62° NW 03:55:12 10° NNE
Lacrosse 5 rocket 1.3 03:51:05 44° NW 03:51:54 56° N 03:55:26 10° E
Meteor 2-20 Rocket 4.4 03:45:52 10° NNW 03:52:02 71° W 03:58:10 10° S
IDEFIX/ARIANE 42P 3.4 03:49:23 10° N 03:53:48 29° WNW 03:54:04 29° WNW
Cosmos 1898 Rocket 3.8 03:49:25 10° SSW 03:54:37 71° ESE 03:59:55 10° NNE
SL-16 R/B 2.1 03:50:44 17° NW 03:55:17 80° WSW 04:00:58 10° SSE
CZ-2C R/B 2.5 03:51:07 10° N 03:55:56 49° WNW 04:00:34 10° SW
Cosmos 1076 Rocket 3.5 03:52:16 10° SSW 03:56:34 58° WNW 04:00:53 10° N
Cosmos 2237 Rocket 4.1 03:52:42 10° NNW 03:56:59 21° NNE 04:01:15 10° ENE
Cosmos 1153 Rocket 4.4 03:51:21 10° SSW 03:57:29 73° WNW 04:03:39 10° N
Cosmos 2058 2.8 03:53:43 10° SSW 03:57:55 71° WNW 04:02:09 10° N
Cosmos 2360 Rocket 2.7 03:52:56 11° NNW 03:58:22 60° NE 04:03:59 10° SE
ATLAS 2AS CENTAUR R/B 2.9 03:53:43 19° NW 03:59:40 77° SW 04:06:53 10° SE
CZ-4B R/B 2.8 03:56:42 10° N 04:00:11 47° WNW 04:02:11 22° SW
Lacrosse 5 2.3 03:56:32 15° SW 04:00:40 62° SSE 04:05:42 10° ENE
ASTEX 1 3.9 03:57:24 10° SSW 04:02:00 37° W 04:06:39 10° NNW
Cosmos 1980 Rocket 3.0 04:02:33 26° W 04:03:54 29° WSW 04:08:40 10° SSW
NOSS 2-1 (C) 4.1 04:03:39 29° NW 04:04:39 34° NNW 04:08:45 10° NE
BREEZE-M DEB (TANK) 4.4 04:05:06 16° SW 04:05:58 18° SSW 04:07:56 10° SSE
Cosmos 2322 Rocket 2.1 04:01:37 14° NW 04:06:35 77° WSW 04:12:14 10° SSE
Cosmos 1408 Rocket 4.5 04:03:44 10° S 04:07:54 50° E 04:12:07 10° NNE
NOSS 2-1 (D) 4.2 04:07:01 27° NW 04:08:10 33° NNW 04:12:16 10° NE
Cosmos 1937 Rocket 3.8 04:03:38 10° SSW 04:08:45 68° ESE 04:13:52 10° NNE
Cosmos 1356 Rocket 4.3 04:08:04 27° WNW 04:08:55 30° W 04:12:41 10° SSW
Okean 3 Rocket 3.5 04:06:10 10° SSW 04:10:42 86° WNW 04:15:13 10° N
Cosmos 1461 3.5 04:09:41 28° WNW 04:10:50 34° NNW 04:14:32 10° NE
Cosmos 1605 Rocket 4.2 04:05:01 10° SW 04:10:53 44° WNW 04:16:45 10° N
Cosmos 2173 Rocket 4.0 04:04:46 10° S 04:11:04 89° E 04:17:18 10° NNE
SJ-12 3.8 04:08:57 10° NNE 04:13:08 83° WNW 04:17:17 10° SSW
Cosmos 1766 Rocket 3.5 04:14:54 10° S 04:19:14 89° WNW 04:23:37 10° NNE
SL-4 R/B 2.9 04:17:16 21° W 04:20:17 52° SSW 04:24:57 10° ESE
STARLINK-67 3.1 04:21:01 30° WSW 04:21:55 44° SSW 04:24:29 10° ESE
Cosmos 858 Rocket 4.5 04:17:50 10° SSW 04:23:02 88° ESE 04:28:16 10° NNE
MOS 1-B 4.3 04:17:39 10° NNE 04:23:30 75° WNW 04:29:16 10° SSW
Meteor PRIRODA 4.1 04:20:51 10° N 04:24:16 37° WNW 04:27:40 10° SW
COSMO-SKYMED 1 3.3 04:21:21 10° SSW 04:25:12 31° W 04:29:06 10° NNW
Meteor 1-31 Rocket 3.7 04:22:01 10° N 04:25:18 27° WNW 04:28:09 12° WSW
Gbstr 26 Del rocket 4.3 04:22:12 10° SW 04:25:32 30° SSE 04:28:53 10° E
USA 234 3.3 04:20:07 10° ESE 04:26:42 89° SSW 04:32:17 15° WNW
Cosmos 2322 4.2 04:22:17 10° NNW 04:27:58 61° NE 04:33:35 10° SE
Cosmos 2333 Rocket 3.1 04:25:53 10° NNW 04:31:28 46° NE 04:37:01 10° ESE
Cosmos 1400 Rocket 3.5 04:27:40 10° N 04:31:47 59° ENE 04:35:48 10° SSE
COSMOS 2455 3.2 04:27:07 14° NW 04:31:59 44° WSW 04:37:38 10° S
Cosmos 1484 Rocket 3.2 04:28:50 10° N 04:32:36 41° WNW 04:36:23 10° SW
SJ 16-02 1.3 04:29:56 10° SW 04:34:17 62° WNW 04:38:40 10° NNE
CZ-4B R/B 3.2 04:29:30 10° NNE 04:34:54 88° ESE 04:40:21 10° SSW
STARLINK-52 3.7 04:32:53 13° WSW 04:35:57 57° SSE 04:39:25 10° E
Cosmos 2228 Rocket 3.3 04:32:05 10° N 04:36:40 78° ENE 04:41:16 10° SSE
PAYLOAD B 4.2 04:32:50 10° NNE 04:38:21 71° WNW 04:43:48 10° SSW
Okean O Rocket 1.5 04:34:27 10° NNE 04:38:48 75° WNW 04:43:09 10° SSW
Cosmos 2151 3.2 04:40:16 10° SSW 04:44:28 50° WNW 04:48:42 10° N
Cosmos 1606 2.6 04:41:03 10° NNW 04:44:51 82° W 04:48:39 10° S
H-2A R/B 4.1 04:42:00 10° NNW 04:45:01 18° NW 04:47:32 12° W
Cosmos 2298 Rocket 4.5 04:41:07 10° SSW 04:46:23 67° ESE 04:51:40 10° NNE
FENGYUN 3A 3.6 04:40:59 10° NNE 04:46:25 67° WNW 04:51:46 10° SSW
Cosmos 2346 Rocket 4.5 04:41:19 10° NNW 04:47:22 62° W 04:53:18 10° S
ALOS 2.3 04:43:34 10° N 04:48:09 55° WNW 04:52:43 10° SW
ATLAS CENTAUR R/B 3.7 04:44:49 10° S 04:49:14 34° ESE 04:53:31 10° ENE
Cosmos 1892 3.2 04:46:24 10° SW 04:49:55 36° WNW 04:53:28 10° N
STARLINK-29 3.5 04:46:55 10° WSW 04:50:23 64° S 04:53:50 10° E
Cosmos 2219 Rocket 2.8 04:46:22 10° NNW 04:51:56 56° NE 04:57:31 10° SE
RESURS DK-1 4.1 04:49:31 10° NNW 04:53:08 27° NE 04:56:42 10° E
Cosmos 1408 2.7 04:51:50 10° SSW 04:55:28 54° WNW 04:59:07 10° N
SMAP 3.6 04:52:05 10° NNE 04:56:46 65° ESE 05:01:24 10° S
Cosmos 1725 Rocket 4.0 04:51:07 10° SSW 04:57:23 78° WNW 05:03:45 10° N
ADEOS Rocket 3.7 04:49:35 10° SSE 04:57:24 88° ENE 05:04:50 10° NNW
Cosmos 1459 Rocket 4.2 04:52:35 10° SW 04:58:34 48° WNW 05:04:40 10° N
STARLINK-60 3.3 04:55:36 10° W 04:58:58 69° S 05:02:20 10° E
METEOR-M 4.3 04:55:35 10° N 05:00:46 51° WNW 05:05:54 10° SW
CZ-4B DEB 4.5 04:55:53 10° N 05:01:05 46° WNW 05:06:16 10° SW
Cosmos 1048 Rocket 4.2 04:55:55 10° NNW 05:01:13 59° WSW 05:06:28 10° S
Cosmos 2016 Rocket 4.1 04:55:56 10° SSW 05:02:07 62° WNW 05:08:26 10° N
Cosmos 372 Rocket 4.2 04:57:02 10° SSW 05:02:12 77° ESE 05:07:21 10° NNE
STARLINK-46 3.2 05:00:14 10° W 05:03:06 56° SSW 05:06:02 10° ESE
SL-27 R/B 3.3 05:00:26 10° WSW 05:03:17 26° NW 05:06:09 10° N
Tsikada Rocket 4.2 04:59:03 10° NNW 05:05:18 56° W 05:11:29 10° SSW
COSMOS 2487 2.7 05:02:20 10° SSW 05:05:46 71° ESE 05:09:15 10° NNE
Cosmos 1933 3.7 05:03:12 10° NNW 05:07:03 42° W 05:10:50 10° SSW
FALCON 9 DEB 3.4 05:04:50 10° WSW 05:08:16 69° S 05:11:42 10° E
NOSS 3-4 (A) 4.3 05:03:36 10° NW 05:10:09 46° SW 05:17:18 10° SSE
H-2A R/B 2.7 05:06:24 10° NNE 05:10:11 86° ESE 05:13:54 10° SSW
NOSS 3-4 (C) 4.3 05:03:42 10° NW 05:10:16 47° SW 05:17:24 10° SSE
SL-16 R/B 3.9 05:05:47 10° NNW 05:10:26 25° NNE 05:15:03 10° E
Cosmos 2237 4.5 05:05:52 10° NW 05:11:28 55° WSW 05:17:00 10° S
Cosmos 990 Rocket 4.5 05:06:46 10° WSW 05:11:37 39° NW 05:16:32 10° NNE
Cosmos 2082 Rocket 3.0 05:07:43 10° W 05:12:49 32° NW 05:17:56 10° NNE
Helios 1A Rocket 3.5 05:09:28 10° N 05:13:16 35° WNW 05:17:00 10° SW
Cosmos 2084 Rocket 4.2 05:09:50 10° W 05:14:01 38° NNW 05:18:12 10° NE
Cosmos 1515 Rocket 4.3 05:12:29 10° NNW 05:16:23 32° W 05:20:14 10° SSW
Cosmos 1707 Rocket 4.1 05:12:28 10° N 05:16:56 65° ENE 05:21:23 10° SSE
Cosmos 1825 2.5 05:14:02 10° SSW 05:17:39 44° WNW 05:21:18 10° N
Iridium 82 4.5 05:14:16 10° N 05:17:51 79° W 05:21:23 10° S
NOSS 3-3 (A) 4.1 05:16:55 10° WSW 05:23:05 70° NW 05:30:09 10° NE
NOSS 3-3 (C) 4.1 05:17:02 10° WSW 05:23:11 70° NW 05:30:15 10° NE
